Airfield :
LOGIN :

Register | Disclaimer

   EN    FR    IT 

 










Legend :    VFR   Marginal VFR   IFR   Intensive IFR   Very Intensive IFR
Visi :
Ceiling :
>= 8 km
>= 3000ft
5 to 8 km
1000 to 3000 ft
1500m to 5 km
500 to 1000 ft
800 to 1500m
200 to 500 ft
< 800m
< 200 ft
Symbols :   Thunderstorms  Fog  Heavy snow  Heavy precipitations  Wind > 20 kt
SIGMETs :     Misc.  Thunderstorms  Icing  Turbulence  Mountain Waves  Volcanic Ashes






- Airport Elevation : 194 ft
- IATA code : ANE


LFJR - Angers Marcé

CURRENT METAR :
  • 192200Z AUTO 22005KT 9999 FEW025 SCT039 16/15 Q1010

EXPIRED METARs :
  • 192130Z AUTO 25004KT 9999 BKN018 BKN028 OVC044 16/15 Q1010
  • 192100Z AUTO 27003KT 9999 SCT020 BKN025 BKN034 16/15 Q1010
  • 192030Z AUTO 31004KT 270V350 9999 SCT016/// BKN022/// BKN029/// ///CB 17/14 Q1010
  • 192000Z AUTO 33003KT 230V040 9999 VCTS FEW014/// BKN021/// BKN027/// ///CB 17/14 Q1010
  • 191930Z AUTO VRB04KT 9999 TS BKN018/// OVC040/// ///CB 18/14 Q1010

Expired Forecast.



MET'MAP, your aeronautical weather chart ! - Copyright ORBIFLY December 2007 - Disclaimer

ORBIFLY MET'MAP TEAM :

Programming & Development : Alexandra Zaïnal
Concept & original design : Baudouin d'Aumeries
Assistance for programming : Marc-Olivier Méhu
Technical & hardware support : Manuel Goepfert

Contact : metmap@orbifly.com




SOURCES & CREDITS :

   NOAA